Nome, AK

1:45 PM AKST on February 24, 2017 (GMT -0900)
Nome

Weather History for PAOM - September, 2014

Change the Weather History Date:

Monday, September 15, 2014

  Actual Average Record
Temperature  
Mean Temperature 54 °F 43 °F  
Max Temperature 60 °F 49 °F 62 °F (1949)
Min Temperature 48 °F 38 °F 24 °F (1992)
Degree Days  
Heating Degree Days 11 22  
Month to date heating degree days 240 287  
Since 1 July heating degree days 943 1147  
Cooling Degree Days 0 0  
Month to date cooling degree days 0 0  
Year to date cooling degree days 3 3  
Growing Degree Days 4 (Base 50)    
Moisture  
Dew Point 48 °F    
Average Humidity 0    
Maximum Humidity 0    
Minimum Humidity 0    
Precipitation  
Precipitation T in 0.08 in 0.76 in (2006)
Month to date precipitation 2.04 1.34  
Year to date precipitation 11.06 11.79  
Snow  
Snow 0.00 in 0.00 in 1.00 in (1972)
Month to date snowfall 0.0 0.1  
Since 1 July snowfall 0.0 0.1  
Since 1 September snowfall 0.0 0.1  
Snow Depth 0.00 in    
Sea Level Pressure  
Sea Level Pressure 29.50 in    
Wind  
Wind Speed 5 mph (NW)    
Max Wind Speed 13 mph    
Max Gust Speed 18 mph    
Visibility 10 miles    
Events Rain    
T = Trace of Precipitation, MM = Missing Value Source: NWS Daily Summary

Daily Weather History Graph

Daily Weather History Graph

Search for Another Location

Airport or City:

Trip Planner

Search our weather history database for the weather conditions in past years. The results will help you decide how hot, cold, wet, or windy it might be!

Date:

Astronomy

Sep. 15, 2014 Rise Set
Actual Time 8:24 AM AKDT 9:27 PM AKDT
Civil Twilight 7:35 AM AKDT 10:16 PM AKDT
Nautical Twilight 6:32 AM AKDT 11:18 PM AKDT
Astronomical Twilight 5:14 AM AKDT 12:34 AM AKDT
Moon No Moon Rise 5:51 PM AKDT (9/15)
Length of Visible Light 14h 41m
Length of Day
13h 02m
Waning Gibbous, 53% of the Moon is Illuminated
Sep 15
Waning Gibbous
Sep 15
Last Quarter
Sep 23
New
Oct 1
First Quarter
Oct 8
Full

Hourly Weather History & Observations

Time (AKDT) Temp. Dew Point Humidity Pressure Visibility Wind Dir Wind Speed Gust Speed Precip Events Conditions
12:53 AM 50.0 °F 46.9 °F 89% 29.49 in 10.0 mi WNW 8.1 mph - 0.02 in   Overcast
1:53 AM 50.0 °F 45.0 °F 83% 29.49 in 10.0 mi NNW 12.7 mph - N/A   Mostly Cloudy
2:53 AM 51.1 °F 46.0 °F 83% 29.50 in 10.0 mi NW 6.9 mph - N/A   Mostly Cloudy
3:53 AM 51.1 °F 46.9 °F 86% 29.51 in 10.0 mi West 8.1 mph - N/A   Mostly Cloudy
4:53 AM 50.0 °F 46.0 °F 86% 29.51 in 10.0 mi North 4.6 mph - N/A   Mostly Cloudy
5:53 AM 48.9 °F 46.9 °F 93% 29.51 in 10.0 mi NNE 6.9 mph - 0.00 in   Overcast
6:53 AM 50.0 °F 46.0 °F 86% 29.50 in 10.0 mi NNW 4.6 mph - 0.00 in   Overcast
7:53 AM 51.1 °F 46.9 °F 86% 29.51 in 10.0 mi WNW 5.8 mph - 0.00 in Rain Light Rain
8:53 AM 50.0 °F 46.0 °F 86% 29.50 in 10.0 mi NW 6.9 mph - 0.00 in   Overcast
9:53 AM 51.1 °F 46.0 °F 83% 29.50 in 10.0 mi NW 5.8 mph - N/A   Overcast
10:53 AM 52.0 °F 46.9 °F 83% 29.50 in 10.0 mi North - - N/A   Mostly Cloudy
11:53 AM 55.0 °F 46.9 °F 74% 29.49 in 10.0 mi NW 9.2 mph - N/A   Overcast
12:53 PM 57.9 °F 46.0 °F 65% 29.50 in 10.0 mi North - - N/A   Overcast
1:53 PM 59.0 °F 46.9 °F 64% 29.50 in 10.0 mi North - - N/A   Mostly Cloudy
2:53 PM 54.0 °F 50.0 °F 86% 29.50 in 10.0 mi SE 10.4 mph - N/A   Overcast
3:53 PM 55.0 °F 50.0 °F 83% 29.50 in 10.0 mi SSE 9.2 mph - N/A   Overcast
4:53 PM 55.0 °F 50.0 °F 83% 29.50 in 10.0 mi South 5.8 mph - N/A   Mostly Cloudy
5:53 PM 55.0 °F 51.1 °F 86% 29.50 in 10.0 mi South 4.6 mph - N/A   Scattered Clouds
6:53 PM 55.0 °F 50.0 °F 83% 29.50 in 10.0 mi SSE 4.6 mph - N/A   Mostly Cloudy
7:53 PM 54.0 °F 50.0 °F 86% 29.50 in 10.0 mi SE 4.6 mph - N/A   Mostly Cloudy
8:53 PM 53.1 °F 50.0 °F 89% 29.50 in 10.0 mi Calm Calm - N/A   Mostly Cloudy
9:53 PM 52.0 °F 50.0 °F 93% 29.51 in 10.0 mi East 3.5 mph - N/A   Mostly Cloudy
10:53 PM 52.0 °F 48.9 °F 89% 29.51 in 10.0 mi Calm Calm - N/A   Mostly Cloudy
11:53 PM 51.1 °F 48.0 °F 89% 29.52 in 10.0 mi Calm Calm - N/A   Mostly Cloudy